FW4751 Weather Reports


time (UTC)temp
C
wind
direction
speed
KPH
gust
KPH
rain 1hr
cm
rain 24hr
cm
rain mn
cm
humidity
%
barometer
mb
20260904201009 21 45 4.8 9.7 0.00 0.05 0.03 58 1014.4
20260904200509 21 45 4.8 11.3 0.00 0.05 0.03 57 1014.6
20260904200004 22 45 3.2 9.7 0.00 0.05 0.03 57 1014.5
20260904195524 22 45 3.2 9.7 0.00 0.05 0.03 57 1014.6
20260904195004 22 45 3.2 9.7 0.00 0.05 0.03 57 1014.5
20260904194504 22 45 3.2 9.7 0.00 0.05 0.03 58 1014.4
20260904194009 22 45 3.2 8.0 0.00 0.05 0.03 58 1014.5
20260904193529 21 45 3.2 8.0 0.00 0.05 0.03 58 1014.5
20260904193004 21 23 3.2 8.0 0.00 0.05 0.03 59 1014.6
20260904192509 21 45 3.2 6.4 0.00 0.05 0.03 59 1014.7
20260904192009 21 45 3.2 8.0 0.00 0.05 0.03 59 1014.7
20260904191524 21 45 3.2 8.0 0.00 0.05 0.03 59 1014.8
20260904191009 21 45 3.2 8.0 0.00 0.05 0.03 60 1014.8
20260904190544 21 45 1.6 6.4 0.00 0.05 0.03 60 1014.7
20260904190004 21 45 1.6 8.0 0.00 0.05 0.03 61 1014.7
20260904185504 21 45 3.2 8.0 0.00 0.05 0.03 61 1014.8
20260904185004 21 45 3.2 8.0 0.00 0.05 0.03 63 1014.7
20260904184504 21 23 3.2 8.0 0.00 0.05 0.03 61 1014.8
20260904184004 21 45 3.2 8.0 0.00 0.05 0.03 61 1014.9
20260904183509 21 23 3.2 9.7 0.00 0.05 0.03 62 1014.8
20260904183009 21 45 1.6 6.4 0.00 0.05 0.03 61 1014.8
20260904182504 21 45 1.6 6.4 0.00 0.05 0.03 62 1014.9
20260904182004 21 45 3.2 6.4 0.00 0.05 0.03 60 1015.0
20260904181524 21 45 1.6 8.0 0.00 0.05 0.03 61 1015.0
20260904181004 21 45 1.6 6.4 0.00 0.05 0.03 61 1015.0
20260904180504 21 45 3.2 8.0 0.00 0.05 0.03 61 1015.0
20260904180004 21 45 3.2 6.4 0.00 0.05 0.03 61 1015.1
20260904175524 21 113 3.2 8.0 0.00 0.05 0.03 61 1015.0
20260904175029 21 135 3.2 8.0 0.00 0.05 0.03 61 1015.1
20260904174504 21 113 1.6 4.8 0.00 0.05 0.03 62 1015.2
20260904174004 21 113 3.2 9.7 0.00 0.05 0.03 62 1015.2
20260904173504 21 113 3.2 9.7 0.00 0.05 0.03 62 1015.1
20260904173024 21 135 1.6 6.4 0.00 0.05 0.03 63 1015.0
20260904172509 21 113 1.6 6.4 0.00 0.05 0.03 64 1015.0
20260904172005 21 135 1.6 6.4 0.00 0.05 0.03 64 1015.0
20260904171544 20 135 1.6 4.8 0.00 0.05 0.03 66 1015.0
20260904171004 20 135 3.2 8.0 0.00 0.05 0.03 67 1014.9
20260904170503 20 45 1.6 4.8 0.00 0.05 0.03 68 1015.0
20260904170004 20 135 1.6 6.4 0.00 0.05 0.03 69 1014.9
20260904165508 20 135 1.6 6.4 0.00 0.05 0.03 71 1014.9
20260904165024 19 113 1.6 4.8 0.00 0.05 0.03 71 1014.8
20260904164504 18 135 1.6 3.2 0.00 0.05 0.03 69 1014.9
20260904164004 18 0.0 1.6 0.00 0.05 0.03 70 1014.7
20260904163504 18 23 1.6 3.2 0.00 0.05 0.03 70 1014.7
20260904163024 18 45 1.6 3.2 0.00 0.05 0.03 72 1014.6
20260904162524 18 315 1.6 6.4 0.00 0.05 0.03 74 1014.6
20260904162004 18 315 1.6 4.8 0.00 0.05 0.03 76 1014.5
20260904161508 18 315 1.6 3.2 0.00 0.05 0.03 77 1014.5
20260904161008 17 45 1.6 3.2 0.00 0.05 0.03 78 1014.4
20260904160509 17 315 1.6 4.8 0.00 0.05 0.03 80 1014.6
20260904160023 17 45 1.6 3.2 0.00 0.05 0.03 81 1014.5
20260904155509 17 23 1.6 3.2 0.00 0.05 0.03 83 1014.5
20260904155004 17 270 1.6 3.2 0.00 0.05 0.03 84 1014.6
20260904154503 17 0.0 1.6 0.00 0.05 0.03 86 1014.4
20260904154009 17 0.0 1.6 0.00 0.05 0.03 87 1014.4
20260904153508 17 0.0 1.6 0.00 0.05 0.03 88 1014.6
20260904153023 16 45 1.6 3.2 0.00 0.05 0.03 89 1014.5
20260904152507 16 0.0 1.6 0.00 0.05 0.03 91 1014.3
20260904152023 16 0.0 1.6 0.00 0.05 0.03 92 1014.4
20260904151504 15 293 1.6 3.2 0.00 0.05 0.03 92 1014.5
20260904151008 15 315 1.6 1.6 0.00 0.05 0.03 94 1014.4
20260904150508 14 0.0 1.6 0.00 0.05 0.03 93 1014.2
20260904150004 13 0.0 3.2 0.00 0.05 0.03 93 1014.2
20260904145508 13 0.0 3.2 0.00 0.05 0.03 93 1014.1
20260904145003 13 0.0 1.6 0.00 0.05 0.03 92 1013.9
20260904144529 13 0.0 3.2 0.00 0.05 0.03 92 1013.9
20260904144023 13 0.0 1.6 0.00 0.05 0.03 92 1013.7
20260904143508 13 0.0 1.6 0.00 0.05 0.03 92 1013.7
20260904143008 13 0.0 1.6 0.00 0.05 0.03 92 1013.6
20260904142508 13 0.0 1.6 0.00 0.05 0.03 92 1013.5
20260904142028 13 0.0 1.6 0.00 0.05 0.03 92 1013.6
20260904141508 13 0.0 1.6 0.00 0.05 0.03 91 1013.6
20260904141024 13 0.0 1.6 0.00 0.05 0.03 91 1013.5
20260904140508 13 0.0 1.6 0.00 0.05 0.03 91 1013.5
20260904140004 13 0.0 1.6 0.00 0.05 0.03 91 1013.5
20260904135508 13 0.0 1.6 0.00 0.05 0.03 91 1013.5
20260904135003 13 0.0 1.6 0.00 0.05 0.03 91 1013.4
20260904134503 13 0.0 1.6 0.00 0.05 0.03 91 1013.4
20260904134004 13 0.0 1.6 0.00 0.05 0.03 91 1013.4
20260904133503 13 0.0 1.6 0.00 0.05 0.03 91 1013.3
20260904133008 13 0.0 1.6 0.00 0.05 0.03 91 1013.4
20260904132508 13 0.0 1.6 0.00 0.05 0.03 91 1013.3
20260904132003 13 0.0 1.6 0.00 0.05 0.03 91 1013.3
20260904131528 13 0.0 1.6 0.00 0.05 0.03 91 1013.3
20260904131008 13 0.0 1.6 0.00 0.05 0.03 91 1013.2
20260904130503 13 0.0 1.6 0.00 0.05 0.03 91 1013.3
20260904130003 14 0.0 0.0 0.00 0.05 0.03 91 1013.2
20260904125503 14 0.0 0.0 0.00 0.05 0.03 91 1013.2
20260904125008 14 0.0 0.0 0.00 0.05 0.03 91 1013.1
20260904124503 14 0.0 0.0 0.00 0.05 0.03 91 1013.2
20260904124008 14 0.0 0.0 0.00 0.05 0.03 91 1013.3
20260904123508 14 0.0 0.0 0.00 0.05 0.03 91 1013.2
20260904123003 14 0.0 1.6 0.00 0.05 0.03 91 1013.2
20260904122503 14 0.0 1.6 0.00 0.05 0.03 91 1013.2
20260904122003 14 0.0 1.6 0.00 0.05 0.03 91 1013.3
20260904121503 14 0.0 1.6 0.00 0.05 0.03 91 1013.3
20260904121008 14 0.0 1.6 0.00 0.05 0.03 91 1013.3
20260904120508 14 0.0 1.6 0.00 0.05 0.03 91 1013.2
20260904120028 15 0.0 1.6 0.00 0.05 0.03 91 1013.2
20260904115503 15 0.0 1.6 0.00 0.05 0.03 91 1013.3
20260904115008 15 0.0 1.6 0.00 0.05 0.03 91 1013.2
20260904114503 15 0.0 1.6 0.00 0.05 0.03 91 1013.2
20260904114008 15 0.0 1.6 0.00 0.05 0.03 91 1013.2
20260904113508 15 0.0 1.6 0.00 0.05 0.03 91 1013.2
20260904113003 15 0.0 1.6 0.00 0.05 0.03 90 1013.0
20260904112510 15 0.0 1.6 0.00 0.05 0.03 91 1013.1
20260904112005 15 0.0 1.6 0.00 0.05 0.03 90 1013.2
20260904111505 15 0.0 1.6 0.00 0.05 0.03 91 1013.3
20260904111008 15 0.0 1.6 0.00 0.05 0.03 91 1013.1
20260904110510 15 0.0 0.0 0.00 0.05 0.03 91 1013.1
20260904110005 15 0.0 1.6 0.00 0.05 0.03 91 1013.1
20260904105505 15 0.0 1.6 0.00 0.05 0.03 91 1013.1
20260904105005 15 0.0 1.6 0.00 0.05 0.03 91 1013.0
20260904104525 15 0.0 1.6 0.00 0.05 0.03 91 1012.9
20260904104005 15 0.0 1.6 0.00 0.05 0.03 91 1013.0
20260904103510 15 0.0 0.0 0.00 0.05 0.03 91 1012.9
20260904103010 15 0.0 1.6 0.00 0.05 0.03 91 1012.9
20260904102525 15 0.0 0.0 0.00 0.05 0.03 91 1012.9
20260904102005 15 0.0 1.6 0.00 0.05 0.03 91 1012.8
20260904101510 16 0.0 1.6 0.00 0.05 0.03 91 1012.9
20260904101005 16 0.0 1.6 0.00 0.05 0.03 91 1012.9
20260904100509 16 0.0 1.6 0.00 0.05 0.03 91 1012.8
20260904100005 16 0.0 1.6 0.00 0.05 0.03 91 1012.9
20260904095505 16 0.0 1.6 0.00 0.05 0.03 91 1012.8
20260904095005 16 0.0 3.2 0.00 0.05 0.03 91 1013.0
20260904094525 16 338 1.6 3.2 0.00 0.05 0.03 91 1012.9
20260904094005 16 338 1.6 3.2 0.00 0.05 0.03 91 1012.8
20260904093505 16 338 1.6 3.2 0.00 0.05 0.03 91 1012.8
20260904093009 16 0 1.6 4.8 0.00 0.05 0.03 91 1012.7
20260904092504 16 0 1.6 3.2 0.00 0.05 0.03 91 1012.7
20260904092010 16 0.0 1.6 0.00 0.05 0.03 91 1012.7
20260904091509 16 0.0 1.6 0.00 0.05 0.03 91 1012.7
20260904091005 16 0.0 1.6 0.00 0.05 0.03 91 1012.7
20260904090505 16 0.0 1.6 0.00 0.05 0.03 91 1012.7
20260904090010 16 0.0 1.6 0.00 0.05 0.03 91 1012.8
20260904085530 16 0.0 1.6 0.00 0.05 0.03 91 1012.7
20260904085024 16 0.0 1.6 0.00 0.05 0.03 91 1012.7
20260904084504 16 0.0 1.6 0.00 0.05 0.03 91 1012.7
20260904084005 16 0.0 1.6 0.00 0.05 0.03 91 1012.6
20260904083504 16 0.0 1.6 0.00 0.05 0.03 91 1012.7
20260904083009 16 0.0 1.6 0.00 0.05 0.03 91 1012.6
20260904082530 16 0.0 1.6 0.00 0.05 0.03 91 1012.6
20260904082025 16 0.0 1.6 0.03 0.05 0.03 90 1012.6
20260904081504 16 0.0 1.6 0.03 0.05 0.03 90 1012.5
20260904081010 16 0.0 1.6 0.03 0.05 0.03 90 1012.5
20260904080524 16 0.0 1.6 0.03 0.05 0.03 90 1012.6
20260904080005 16 0.0 1.6 0.03 0.05 0.03 90 1012.6
20260904075524 16 0.0 1.6 0.03 0.05 0.03 90 1012.6
20260904075009 16 0.0 1.6 0.03 0.05 0.03 90 1012.5
20260904074509 16 0.0 3.2 0.03 0.05 0.03 90 1012.6
20260904074004 16 0.0 1.6 0.03 0.05 0.03 90 1012.5
20260904073504 16 0.0 1.6 0.03 0.05 0.03 90 1012.6
20260904073005 16 0.0 1.6 0.03 0.05 0.03 90 1012.6
20260904072504 16 0.0 1.6 0.03 0.05 0.03 90 1012.5
20260904072004 16 0.0 1.6 0.00 0.03 0.00 90 1012.5
20260904071524 16 0.0 1.6 0.00 0.03 0.00 90 1012.5
20260904071025 16 0.0 1.6 0.00 0.03 0.00 90 1012.6
20260904070504 16 0.0 1.6 0.03 0.03 0.00 90 1012.6
20260904070026 16 0.0 1.6 0.03 0.03 0.03 89 1012.6
20260904065509 16 315 1.6 3.2 0.03 0.03 0.03 89 1012.7
20260904065029 16 0.0 3.2 0.03 0.03 0.03 89 1012.7
20260904064509 16 315 1.6 3.2 0.03 0.03 0.03 89 1012.7
20260904064004 16 315 1.6 3.2 0.03 0.03 0.03 89 1012.7
20260904063504 16 315 1.6 4.8 0.03 0.03 0.03 89 1012.7
20260904063004 16 315 1.6 4.8 0.03 0.03 0.03 89 1012.7
20260904062509 16 315 1.6 6.4 0.03 0.03 0.03 89 1012.7
20260904062005 16 315 1.6 4.8 0.03 0.03 0.03 88 1012.7
20260904061504 16 338 3.2 8.0 0.03 0.03 0.03 88 1012.6
20260904061004 16 315 1.6 8.0 0.03 0.03 0.03 88 1012.6
20260904060504 16 338 3.2 6.4 0.00 0.00 0.00 87 1012.6
20260904060009 16 338 3.2 9.7 0.00 0.00 0.00 87 1012.5
20260904055524 17 0 3.2 9.7 0.00 0.00 0.00 86 1012.4
20260904055024 17 0 3.2 6.4 0.00 0.00 0.00 85 1012.4
20260904054504 17 0 1.6 6.4 0.00 0.00 0.00 85 1012.5
20260904054004 17 338 3.2 9.7 0.00 0.00 0.00 84 1012.5
20260904053504 18 0 3.2 8.0 0.00 0.00 0.00 84 1012.5
20260904053024 18 0 3.2 8.0 0.00 0.00 0.00 83 1012.4
20260904052509 18 338 1.6 4.8 0.00 0.00 0.00 83 1012.4
20260904052009 18 23 3.2 8.0 0.00 0.00 0.00 82 1012.5
20260904051504 18 315 1.6 4.8 0.00 0.00 0.00 81 1012.5
20260904051004 18 23 1.6 4.8 0.00 0.00 0.00 81 1012.5
20260904050504 19 315 1.6 6.4 0.00 0.00 0.00 81 1012.5
20260904050004 19 338 1.6 4.8 0.00 0.00 0.00 81 1012.6
20260904045504 20 0 1.6 6.4 0.00 0.00 0.00 80 1012.5
20260904045004 20 0 1.6 4.8 0.00 0.00 0.00 80 1012.5
20260904044504 20 338 1.6 4.8 0.00 0.00 0.00 79 1012.6
20260904044004 20 0.0 3.2 0.00 0.00 0.00 79 1012.5
20260904043524 20 338 1.6 3.2 0.00 0.00 0.00 79 1012.6
20260904043009 20 315 1.6 3.2 0.00 0.00 0.00 79 1012.5
20260904042509 20 315 1.6 4.8 0.00 0.00 0.00 79 1012.5
20260904042004 20 315 1.6 6.4 0.00 0.00 0.00 78 1012.5
20260904041504 20 315 1.6 4.8 0.00 0.00 0.00 78 1012.4
20260904041004 20 315 1.6 4.8 0.00 0.00 0.00 78 1012.3
20260904040504 20 293 1.6 4.8 0.00 0.00 0.00 78 1012.4
20260904040004 20 315 1.6 4.8 0.00 0.00 0.00 78 1012.3
20260904035509 20 315 1.6 6.4 0.00 0.00 0.00 78 1012.3
20260904035009 20 315 1.6 6.4 0.00 0.00 0.00 78 1012.2
20260904034504 20 315 1.6 4.8 0.00 0.00 0.00 77 1012.1
20260904034004 20 315 1.6 6.4 0.00 0.00 0.00 77 1012.2
20260904033504 20 225 1.6 4.8 0.00 0.00 0.00 77 1012.1
20260904033004 20 248 1.6 6.4 0.00 0.00 0.00 77 1012.1
20260904032504 20 315 1.6 6.4 0.00 0.00 0.00 78 1012.0
20260904032004 20 248 1.6 6.4 0.00 0.00 0.00 77 1012.0
20260904031504 20 315 1.6 6.4 0.00 0.00 0.00 77 1012.0
20260904031005 20 248 1.6 6.4 0.00 0.00 0.00 77 1011.9
20260904030504 20 315 1.6 4.8 0.00 0.00 0.00 77 1011.9
20260904030004 20 293 1.6 4.8 0.00 0.00 0.00 77 1011.9
20260904025504 20 315 1.6 6.4 0.00 0.00 0.00 77 1011.9
20260904025004 20 338 1.6 6.4 0.00 0.00 0.00 77 1011.9
20260904024508 20 0.0 3.2 0.00 0.00 0.00 76 1012.0
20260904024004 20 248 1.6 8.0 0.00 0.00 0.00 76 1011.9
20260904023504 20 248 1.6 3.2 0.00 0.00 0.00 75 1011.9
20260904023004 21 315 1.6 6.4 0.00 0.00 0.00 75 1011.9
20260904022504 21 225 1.6 4.8 0.00 0.00 0.00 74 1011.9
20260904022004 21 248 1.6 4.8 0.00 0.00 0.00 74 1012.1
20260904021507 21 225 1.6 6.4 0.00 0.00 0.00 73 1012.1
20260904021008 21 315 1.6 4.8 0.00 0.00 0.00 73 1012.1
20260904020509 21 225 1.6 6.4 0.00 0.00 0.00 72 1012.1
20260904020003 21 225 3.2 8.0 0.00 0.00 0.00 72 1012.2
20260904015509 21 225 3.2 14.5 0.00 0.00 0.00 72 1012.1
20260904015024 21 315 1.6 6.4 0.00 0.00 0.00 72 1012.0
20260904014508 21 315 3.2 8.0 0.00 0.00 0.00 72 1012.0
20260904014009 21 338 1.6 8.0 0.00 0.00 0.00 72 1012.0
20260904013503 21 225 1.6 6.4 0.00 0.00 0.00 71 1012.0
20260904013004 21 338 3.2 16.1 0.00 0.00 0.00 71 1012.1
20260904012508 21 315 1.6 11.3 0.00 0.00 0.00 70 1012.1
20260904012004 21 315 3.2 12.9 0.00 0.00 0.00 70 1011.9
20260904011504 21 248 3.2 12.9 0.00 0.00 0.00 70 1012.1
20260904011003 21 270 3.2 16.1 0.00 0.00 0.00 69 1012.1
20260904010509 21 225 3.2 12.9 0.00 0.00 0.00 68 1012.1
20260904010009 22 315 3.2 12.9 0.00 0.00 0.00 68 1012.1
20260904005509 22 293 1.6 9.7 0.00 0.00 0.00 68 1012.2
20260904005029 22 315 3.2 9.7 0.00 0.00 0.00 67 1012.0
20260904004503 22 248 3.2 11.3 0.00 0.00 0.00 67 1012.1
20260904004009 22 315 3.2 8.0 0.00 0.00 0.00 66 1012.1
20260904003504 22 315 4.8 11.3 0.00 0.00 0.00 66 1012.1
20260904003008 22 315 3.2 12.9 0.00 0.00 0.00 65 1012.2
20260904002503 22 315 4.8 14.5 0.00 0.00 0.00 64 1012.1
20260904002028 22 248 3.2 12.9 0.00 0.00 0.00 64 1012.1
20260904001508 22 225 3.2 11.3 0.00 0.00 0.00 63 1012.2
20260904001008 22 225 3.2 11.3 0.00 0.00 0.00 62 1012.1
20260904000508 22 315 3.2 8.0 0.00 0.00 0.00 62 1012.2
20260904000003 23 315 3.2 8.0 0.00 0.00 0.00 62 1012.2
20260903235624 23 315 4.8 11.3 0.00 0.00 0.00 61 1012.1
20260903235004 23 315 3.2 9.7 0.00 0.00 0.00 61 1012.3
20260903234508 23 315 4.8 11.3 0.00 0.00 0.00 61 1012.1
20260903234026 23 315 3.2 11.3 0.00 0.00 0.00 60 1012.3
20260903233508 23 315 3.2 11.3 0.00 0.00 0.00 60 1012.1
20260903233008 23 315 1.6 8.0 0.00 0.00 0.00 60 1012.2
20260903232503 23 248 3.2 14.5 0.00 0.00 0.00 60 1012.2
20260903232028 24 248 4.8 12.9 0.00 0.00 0.00 59 1012.4
20260903231528 24 315 3.2 12.9 0.00 0.00 0.00 59 1012.4
20260903231008 24 315 4.8 12.9 0.00 0.00 0.00 58 1012.4
20260903230508 25 248 3.2 14.5 0.00 0.00 0.00 58 1012.4
20260903230008 25 315 4.8 14.5 0.00 0.00 0.00 57 1012.5
20260903225523 25 315 4.8 14.5 0.00 0.00 0.00 57 1012.5
20260903225008 25 315 3.2 11.3 0.00 0.00 0.00 55 1012.6
20260903224508 26 315 4.8 16.1 0.00 0.00 0.00 54 1012.5
20260903224008 26 270 3.2 11.3 0.00 0.00 0.00 54 1012.6
20260903223528 26 248 4.8 11.3 0.00 0.00 0.00 53 1012.5
20260903223028 26 315 4.8 11.3 0.00 0.00 0.00 53 1012.7
20260903222528 26 315 3.2 12.9 0.00 0.00 0.00 54 1012.8
20260903222008 26 315 4.8 14.5 0.00 0.00 0.00 53 1012.9
20260903221508 26 270 3.2 9.7 0.00 0.00 0.00 53 1012.9
20260903221028 26 248 3.2 11.3 0.00 0.00 0.00 54 1013.0
20260903220508 26 315 4.8 12.9 0.00 0.00 0.00 54 1013.3
20260903220023 25 315 3.2 9.7 0.00 0.00 0.00 56 1013.3
20260903215508 25 315 3.2 6.4 0.00 0.00 0.00 56 1013.3
20260903215008 25 248 3.2 9.7 0.00 0.00 0.00 57 1013.4
20260903214508 25 315 3.2 8.0 0.00 0.00 0.00 57 1013.4
20260903214006 25 315 3.2 8.0 0.00 0.00 0.00 57 1013.4
20260903213503 25 315 3.2 11.3 0.00 0.00 0.00 57 1013.5
20260903213003 25 270 1.6 4.8 0.00 0.00 0.00 57 1013.5
20260903212508 25 315 1.6 6.4 0.00 0.00 0.00 57 1013.5
20260903212008 25 315 1.6 4.8 0.00 0.00 0.00 57 1013.3
20260903211503 24 0 1.6 4.8 0.00 0.00 0.00 58 1013.4
20260903211008 24 0 1.6 6.4 0.00 0.00 0.00 59 1013.4
20260903210503 24 45 1.6 6.4 0.00 0.00 0.00 60 1013.4
20260903210010 24 23 3.2 8.0 0.00 0.00 0.00 60 1013.4
20260903205530 24 45 3.2 9.7 0.00 0.00 0.00 60 1013.4
20260903205025 24 23 3.2 8.0 0.00 0.00 0.00 60 1013.6
20260903204505 23 45 3.2 8.0 0.00 0.00 0.00 60 1013.6
20260903204025 23 45 3.2 8.0 0.00 0.00 0.00 61 1013.7
20260903203505 23 45 3.2 9.7 0.00 0.00 0.00 61 1013.6
20260903203010 23 23 3.2 6.4 0.00 0.00 0.00 60 1013.7
20260903202505 23 23 1.6 4.8 0.00 0.00 0.00 61 1013.7
20260903202010 23 45 3.2 4.8 0.00 0.00 0.00 61 1013.8
20260903201505 23 45 3.2 4.8 0.00 0.00 0.00 61 1013.9